Wetbulb
65.42 62.35 61.71 59.93 52.14 54.64 52.40 53.91 58.36 58.28 58.55 62.47 65.92 65.26 63.73 66.83 65.53 62.35 75.82 77.28 78.41 78.15 77.78 77.14 77.84 78.00 77.75 76.81 76.13 75.93 75.93 76.41 76.71 76.61 76.56 76.69 76.56 76.21 75.68 75.49 75.35 75.00 74.61 74.29 74.14 74.06 73.78 73.62 73.09
65.26 59.99 57.99 55.82 49.25 48.80 52.07 56.38 55.89 59.14 61.54 65.36 64.47 65.67 64.98 64.15 69.32 73.17 74.73 77.42 78.79 78.10 77.34 76.66 77.44 77.67 77.57 76.86 76.26 76.28 76.51 76.76 76.98 76.83 76.61 76.49 75.96 75.40 75.12 75.09 74.92 74.86 74.56 74.49 74.28 74.15 74.26 74.36 74.19
63.29 58.90 52.31 50.38 49.19 47.66 51.64 56.76 57.28 59.87 61.97 62.69 62.21 65.04 65.94 66.49 70.25 73.20 77.17 77.87 78.49 77.03 76.27 77.43 77.36 77.24 77.36 77.04 76.74 76.76 76.91 77.03 77.06 76.79 76.36 75.81 75.18 74.85 75.25 75.19 74.94 74.70 74.98 75.13 74.96 74.65 74.15 73.84 73.23
58.73 54.92 53.58 47.78 46.95 50.33 53.21 57.58 59.25 58.77 60.73 63.01 62.96 61.93 68.51 73.17 71.65 74.18 76.95 78.02 77.52 76.10 75.47 76.70 77.06 77.13 77.16 77.14 76.88 76.78 76.83 76.81 76.73 76.39 75.81 75.23 74.85 75.03 75.50 75.32 75.12 75.07 75.61 75.30 74.87 74.11 73.47 73.33 73.36
59.12 53.69 47.77 46.90 47.49 50.62 53.57 56.57 59.63 58.47 59.30 61.38 63.05 62.40 68.00 73.32 75.60 75.89 76.81 77.03 76.63 75.07 75.75 76.34 76.77 76.85 77.08 77.09 76.96 76.65 76.65 76.30 76.16 75.68 75.05 74.72 74.88 75.41 75.53 75.40 75.46 75.60 75.46 75.21 74.76 74.03 73.72 73.46 73.50
53.46 52.82 46.46 44.91 47.50 50.71 53.18 55.86 57.85 58.49 59.41 60.00 62.15 62.81 68.68 74.78 75.37 76.09 76.95 76.53 76.10 74.91 75.73 75.48 76.31 76.55 76.45 76.60 76.48 76.40 76.15 76.23 76.20 75.88 75.33 74.83 74.66 74.93 75.15 75.15 75.31 74.97 74.49 73.97 73.84 73.67 73.63 73.31 73.20
52.29 49.72 46.87 47.88 48.56 49.85 51.74 55.63 54.88 57.29 58.92 58.56 63.02 61.95 68.92 72.71 75.97 76.91 76.81 76.79 75.14 75.23 74.07 73.94 74.52 75.77 76.15 76.18 75.97 76.07 75.99 75.92 75.72 75.52 75.20 74.91 74.30 74.33 74.27 74.31 74.28 73.95 73.36 73.08 73.15 73.39 73.61 73.65 73.86
54.64 52.02 48.30 48.70 48.03 48.83 53.72 54.25 55.49 56.15 57.08 62.67 63.08 58.95 64.98 71.32 75.60 76.78 76.80 75.79 74.86 74.90 73.42 72.77 72.89 72.86 73.70 75.00 75.80 75.85 75.67 75.52 75.39 75.02 74.98 74.86 74.28 73.88 73.74 74.03 74.06 73.29 72.96 72.73 72.81 72.77 72.97 73.91 73.79
55.68 48.48 46.67 48.46 49.04 50.41 54.47 52.97 55.30 57.23 56.58 60.65 61.51 61.25 72.10 73.76 75.39 75.42 75.18 74.99 74.50 73.76 73.36 72.85 72.16 72.04 71.62 72.26 74.97 75.38 75.08 74.95 74.98 74.52 74.56 73.68 72.85 72.66 72.24 72.80 72.99 72.06 72.25 72.55 72.84 73.09 73.93 73.71 73.61
51.51 47.42 47.96 52.21 52.69 52.28 53.52 53.15 53.45 53.96 54.87 57.32 59.95 64.61 73.15 73.96 74.46 73.40 73.31 73.60 73.67 73.19 72.67 72.80 72.71 72.37 71.42 70.80 72.40 72.39 73.10 72.95 73.27 73.74 73.15 72.98 73.42 73.66 73.49 73.48 71.88 72.27 72.86 73.54 73.85 73.88 73.83 73.77 74.52
51.37 47.39 50.63 51.74 53.41 54.36 53.04 52.71 53.81 52.72 52.52 56.08 58.05 61.76 70.47 72.35 73.14 73.45 73.34 74.04 74.22 74.12 72.91 72.57 73.93 74.52 72.34 71.97 71.24 72.14 72.62 73.23 74.26 75.02 74.32 74.61 72.79 72.56 70.98 73.13 73.10 73.82 73.45 73.73 73.56 74.41 74.51 74.54 74.07
47.93 51.00 51.65 51.52 53.43 53.11 51.25 53.22 52.23 52.53 53.77 56.14 57.32 60.39 68.43 71.07 71.38 73.29 73.48 73.95 73.95 74.13 73.26 73.67 74.38 75.67 75.37 73.62 71.98 72.42 71.47 72.69 73.09 73.70 74.75 74.66 72.58 73.15 72.86 71.71 71.92 73.05 74.04 73.92 74.45 73.29 74.64 75.03 74.50
47.50 49.29 51.82 52.89 52.67 52.65 52.74 51.10 51.61 52.25 55.32 57.77 59.38 62.73 66.51 69.62 71.07 72.51 74.01 74.33 74.29 73.64 73.79 73.70 75.30 75.76 77.43 76.09 73.97 73.56 73.49 73.24 74.00 74.14 74.37 73.50 71.78 72.82 72.20 72.67 71.20 70.92 72.98 73.97 73.81 74.08 74.61 74.28 74.50
49.03 48.68 49.97 52.53 52.26 51.96 50.23 50.76 51.99 53.08 55.38 56.95 57.30 57.67 67.71 70.39 71.11 72.42 73.30 73.68 74.63 75.10 74.59 74.63 74.80 77.13 75.74 76.80 77.57 75.04 74.88 75.06 74.40 74.46 74.59 74.34 72.62 73.74 72.01 71.71 70.56 71.15 73.01 74.00 74.33 76.07 75.51 75.20 74.88
48.45 45.95 48.14 49.16 51.88 51.08 51.74 48.80 49.76 53.53 55.02 54.36 55.56 57.46 59.35 69.88 71.37 72.30 73.55 74.14 74.63 74.32 74.96 76.26 76.02 75.95 76.77 75.98 75.85 75.88 75.33 75.16 74.75 74.91 75.73 74.30 74.25 73.98 73.65 72.39 71.68 73.67 75.71 75.51 76.17 75.69 75.44 74.58 73.62
45.82 45.50 42.11 48.11 49.58 51.58 51.30 46.05 51.43 54.37 53.80 53.39 54.77 56.60 57.88 63.46 70.75 72.80 73.93 74.40 74.95 74.46 75.51 75.85 74.81 74.79 75.68 76.52 76.11 75.42 75.17 75.02 74.79 74.36 74.41 73.80 73.70 74.97 75.29 74.92 74.88 75.73 75.85 75.58 75.01 74.37 73.19 72.77 72.65
45.39 40.14 41.35 43.77 49.54 49.22 50.13 47.32 52.34 54.75 53.59 53.66 54.61 55.63 56.81 63.81 68.53 73.25 74.21 74.52 73.94 74.34 75.27 75.74 75.85 74.82 75.67 77.40 76.22 76.48 76.97 74.90 73.60 72.94 73.28 74.22 74.52 74.74 75.57 74.89 75.26 75.78 75.16 74.03 72.64 71.11 71.17 70.77 71.11
39.88 41.05 42.13 42.50 46.29 48.04 47.19 48.17 52.38 54.21 53.60 53.02 54.24 55.28 56.16 58.67 68.91 72.80 73.31 73.27 73.36 74.70 75.65 75.85 75.07 75.00 76.35 75.80 77.08 74.70 74.76 72.69 72.58 74.07 75.15 75.98 75.64 75.51 76.03 76.16 76.24 74.82 72.93 71.37 71.25 71.44 72.03 71.63 71.32
44.46 43.43 42.25 44.94 47.28 46.66 46.39 47.66 50.53 53.44 53.88 53.23 53.82 54.65 56.01 58.32 69.30 72.61 73.04 72.90 73.10 73.64 74.72 74.57 73.97 74.76 75.68 74.10 72.92 72.17 69.93 71.49 74.10 75.91 76.70 76.43 76.09 75.84 76.42 74.30 73.45 71.88 71.23 71.50 71.78 71.06 70.85 70.09 70.41
43.50 41.90 41.91 45.47 47.21 46.02 46.01 45.89 49.89 52.29 53.11 53.75 53.90 54.85 56.06 58.35 66.68 71.54 71.84 71.77 72.50 72.67 73.97 73.39 73.83 75.77 75.91 74.44 73.18 71.66 71.92 73.85 74.56 75.19 75.16 74.15 73.03 73.13 73.24 73.34 72.29 72.03 71.42 70.64 69.86 69.78 68.33 68.63 68.58
41.91 40.44 41.24 42.44 45.69 46.93 46.33 45.29 47.32 50.52 53.49 54.39 55.16 55.95 56.97 58.07 63.33 69.60 70.73 71.72 72.97 72.50 72.80 73.14 74.83 75.40 75.64 74.89 76.87 76.79 75.77 74.38 73.19 73.20 72.53 71.49 71.83 72.21 72.08 71.26 70.08 70.57 70.78 68.23 66.99 65.97 64.97 61.92 63.85
39.09 44.38 43.45 42.77 41.61 38.91 46.03 39.11 46.13 48.75 50.47 53.22 54.02 55.14 56.15 57.89 63.70 70.06 68.53 68.32 71.66 72.27 73.05 73.17 73.94 75.05 75.08 77.60 76.45 75.40 72.84 71.67 76.11 70.93 69.26 68.54 69.84 69.25 69.41 68.88 68.03 67.05 65.81 65.12 63.60 63.21 63.80 63.35 59.75
40.73 44.01 42.62 42.46 41.50 41.65 42.94 40.10 45.18 48.83 48.10 51.47 54.10 54.72 56.28 58.50 63.74 69.77 68.08 68.62 71.90 72.02 72.22 72.87 73.31 74.25 75.76 76.75 77.07 74.44 75.32 74.21 72.43 69.49 68.91 67.46 66.77 66.25 65.41 65.18 64.86 64.46 63.57 63.10 63.15 62.73 62.62 61.37 59.84
44.36 43.02 42.60 43.14 41.93 36.41 41.86 42.61 43.35 46.45 48.52 51.38 54.36 55.21 56.20 58.78 65.93 69.92 70.50 71.19 71.70 71.81 72.21 72.42 72.92 73.98 74.32 74.54 75.26 75.35 74.63 70.50 69.60 68.79 67.03 65.93 64.71 63.75 63.86 63.35 63.09 62.84 62.69 62.60 61.83 62.60 61.91 61.47 60.33
43.25 40.46 34.78 33.76 34.66 35.10 43.09 41.88 45.02 50.36 51.33 52.62 53.88 54.95 56.50 61.48 66.10 69.03 70.34 70.08 71.18 71.34 71.62 71.76 72.59 72.95 74.32 74.52 74.29 73.96 73.13 70.92 69.89 68.39 67.08 66.08 64.38 62.82 62.38 62.26 61.84 61.05 61.85 61.35 61.67 61.77 60.70 60.51 60.25
41.69 41.06 35.38 29.18 32.90 36.86 43.34 38.69 43.94 51.38 53.50 53.66 55.77 56.02 57.33 62.88 66.02 68.62 71.10 67.92 71.13 71.11 71.47 71.75 72.34 72.33 73.38 72.46 72.72 71.23 70.74 69.09 68.69 68.84 67.37 65.03 63.16 61.75 62.16 61.36 61.34 60.90 61.10 61.34 61.65 60.20 59.97 61.40 60.90
41.47 38.46 43.26 37.38 40.67 37.64 40.61 44.08 48.03 50.77 51.92 52.65 54.90 55.66 58.31 64.07 66.95 69.24 70.17 67.86 69.92 70.75 71.48 71.30 72.36 72.32 73.11 71.34 71.69 70.73 69.53 69.26 67.32 66.64 65.82 63.30 63.14 61.09 60.98 60.71 60.18 60.30 60.23 60.79 61.07 60.01 60.75 61.25 61.28
42.89 44.75 37.10 39.21 31.44 31.84 38.06 40.83 42.12 46.85 49.72 52.57 54.17 55.13 59.61 64.80 67.83 69.39 69.99 69.42 70.90 71.59 72.58 72.33 71.68 71.65 71.19 70.77 70.20 69.10 68.30 67.55 66.12 64.68 62.78 61.85 61.06 60.72 59.92 59.55 59.54 59.26 59.59 60.00 60.95 60.95 61.04 61.07 60.27
41.03 39.90 41.15 41.39 39.40 33.82 33.88 39.30 48.41 49.32 50.86 52.69 54.42 55.16 60.78 64.92 69.22 69.40 68.46 68.93 70.79 71.57 70.68 70.17 71.00 71.12 70.00 69.32 68.32 67.38 66.26 65.65 64.39 62.70 61.61 60.84 60.72 59.97 59.05 59.03 58.93 58.89 59.06 59.79 60.09 60.35 60.45 60.11 60.46
43.76 41.84 42.06 35.98 35.74 38.97 38.31 39.50 50.32 50.60 52.14 54.31 54.86 55.33 62.77 68.56 68.78 69.33 66.08 67.22 69.13 68.77 69.36 70.07 69.75 69.14 68.38 67.79 66.88 65.86 65.04 63.53 62.19 60.89 60.62 60.33 59.55 59.48 59.03 58.93 58.90 59.36 59.63 60.00 59.63 59.39 59.88 59.61 59.01
MSLP
1010.55 1009.46 1008.25 1006.69 1005.49 1002.47 999.55 997.54 996.38 995.05 995.70 996.34 997.08 997.98 998.31 998.82 998.92 1001.76 1002.07 1002.10 1001.82 1003.78 1005.82 1007.08 1007.89 1008.07 1008.68 1009.23 1009.67 1010.26 1010.76 1011.11 1011.69 1012.18 1012.40 1012.70 1012.95 1013.26 1013.44 1013.67 1013.86 1013.94 1013.97 1014.05 1014.19 1014.32 1014.41 1014.41 1014.37
1009.02 1008.05 1007.48 1005.53 1003.56 1000.41 998.05 996.90 995.42 995.10 995.79 996.98 997.99 998.62 998.95 999.25 999.76 1001.55 1002.11 1002.68 1002.52 1004.34 1005.96 1006.94 1008.24 1008.46 1008.93 1009.43 1009.83 1010.43 1010.91 1011.24 1011.77 1012.28 1012.62 1013.03 1013.27 1013.51 1013.66 1013.91 1014.08 1014.18 1014.25 1014.39 1014.46 1014.54 1014.57 1014.60 1014.59
1009.63 1007.79 1006.31 1004.23 1001.86 999.41 997.18 995.71 995.36 995.23 995.92 997.18 997.52 998.44 998.09 999.89 1000.64 1001.01 1002.01 1002.70 1003.20 1004.74 1005.93 1007.30 1008.34 1008.88 1009.26 1009.64 1010.12 1010.66 1011.15 1011.67 1012.05 1012.43 1012.75 1013.22 1013.47 1013.68 1013.83 1014.11 1014.34 1014.43 1014.47 1014.50 1014.56 1014.54 1014.52 1014.45 1014.37
1008.06 1007.20 1005.92 1002.53 999.93 999.01 997.60 995.33 994.51 994.99 995.73 997.25 997.49 997.75 998.93 1000.35 1001.10 1001.69 1002.14 1002.82 1003.97 1004.90 1005.73 1008.03 1008.54 1009.11 1009.55 1009.87 1010.40 1010.95 1011.46 1011.97 1012.27 1012.64 1012.99 1013.34 1013.61 1013.83 1014.03 1014.24 1014.44 1014.46 1014.53 1014.55 1014.57 1014.55 1014.56 1014.56 1014.50
1007.45 1005.38 1003.70 1001.45 999.70 998.31 997.17 996.49 994.97 995.36 995.47 996.79 997.62 997.60 998.77 1000.46 1001.45 1002.35 1002.67 1003.33 1004.14 1004.96 1005.78 1007.88 1008.87 1009.41 1009.83 1010.22 1010.77 1011.37 1011.78 1012.17 1012.49 1012.87 1013.20 1013.48 1013.71 1013.89 1014.07 1014.23 1014.38 1014.49 1014.59 1014.65 1014.74 1014.75 1014.66 1014.58 1014.50
1006.40 1004.93 1002.07 1000.30 998.80 998.09 997.09 996.17 995.74 996.01 995.64 995.86 996.79 998.07 998.80 1000.48 1001.52 1002.48 1002.94 1003.53 1003.81 1004.84 1006.25 1007.87 1009.24 1009.69 1010.19 1010.65 1011.09 1011.69 1012.04 1012.36 1012.67 1013.09 1013.40 1013.67 1013.91 1014.04 1014.14 1014.29 1014.49 1014.62 1014.69 1014.68 1014.80 1014.86 1014.81 1014.78 1014.62
1005.36 1003.62 1001.39 999.89 998.12 997.14 996.83 996.56 996.10 996.39 996.13 995.68 996.61 997.58 999.01 1000.20 1001.01 1002.22 1003.19 1003.87 1004.21 1005.24 1006.43 1007.83 1008.82 1009.88 1010.56 1011.04 1011.50 1011.94 1012.32 1012.60 1012.89 1013.22 1013.42 1013.72 1013.98 1014.14 1014.23 1014.39 1014.50 1014.63 1014.76 1014.77 1014.78 1014.81 1014.72 1014.60 1014.33
1005.57 1003.81 1001.38 999.82 998.16 996.53 996.25 996.49 996.94 997.19 996.77 996.08 996.40 997.31 998.58 999.90 1001.30 1002.22 1003.08 1003.86 1004.77 1005.62 1006.67 1007.71 1008.71 1009.44 1010.21 1011.13 1011.89 1012.25 1012.54 1012.77 1013.00 1013.32 1013.50 1013.70 1014.01 1014.20 1014.31 1014.39 1014.42 1014.57 1014.58 1014.62 1014.50 1014.42 1014.35 1014.15 1013.90
1005.68 1003.86 1001.13 999.61 998.41 997.27 996.30 996.01 996.92 997.73 997.07 996.44 996.91 997.98 999.20 1000.87 1001.46 1002.19 1002.87 1003.73 1004.78 1005.78 1006.76 1007.33 1008.03 1008.87 1009.28 1010.34 1011.87 1012.41 1012.77 1012.99 1013.12 1013.37 1013.62 1013.72 1013.03 1013.68 1013.85 1013.98 1014.09 1014.37 1014.43 1014.41 1014.24 1014.16 1013.97 1013.64 1013.35
1004.87 1003.33 1001.47 1000.27 998.83 997.62 996.75 996.47 997.17 997.51 997.21 996.84 997.19 998.17 1000.22 1001.22 1001.61 1001.79 1002.47 1003.12 1004.32 1005.30 1006.26 1006.89 1007.59 1008.38 1008.87 1009.98 1011.40 1011.69 1012.29 1012.49 1012.45 1012.65 1013.15 1012.52 1012.35 1012.62 1012.82 1013.38 1013.77 1013.89 1013.91 1013.79 1013.57 1013.46 1013.17 1013.12 1012.12
1004.51 1003.34 1002.13 1000.86 999.58 998.29 997.09 996.99 997.55 997.42 996.89 997.07 997.43 997.89 999.91 1001.52 1001.60 1001.62 1001.99 1002.39 1003.47 1004.87 1006.02 1006.67 1007.51 1008.19 1008.57 1009.47 1010.44 1010.94 1011.58 1011.75 1011.85 1012.08 1012.45 1011.97 1012.34 1012.65 1012.67 1012.29 1012.61 1012.66 1013.39 1012.26 1013.10 1012.30 1012.20 1011.96 1012.01
1004.20 1003.55 1002.99 1001.90 1000.46 999.51 998.70 998.10 997.31 997.67 996.98 997.14 997.55 997.62 998.94 1000.74 1001.30 1001.31 1001.74 1002.14 1002.94 1004.17 1005.34 1006.29 1007.56 1008.12 1008.42 1009.16 1009.60 1010.15 1010.53 1010.94 1011.36 1011.78 1012.28 1012.41 1012.35 1012.37 1012.40 1011.68 1011.87 1012.13 1011.72 1012.30 1012.01 1011.64 1011.64 1011.63 1011.62
1003.97 1003.63 1003.17 1002.61 1001.60 1000.78 1000.30 999.59 998.50 997.78 997.64 997.27 997.81 998.55 998.52 1000.00 1000.72 1001.24 1001.57 1002.08 1003.02 1004.20 1005.37 1006.39 1007.61 1008.28 1008.47 1008.98 1009.01 1009.51 1009.98 1010.59 1010.80 1011.67 1012.04 1011.91 1011.71 1012.06 1012.17 1012.11 1012.23 1012.25 1012.03 1011.95 1012.01 1011.56 1011.48 1011.47 1011.16
1004.16 1003.66 1003.28 1002.90 1002.45 1001.86 1000.91 1000.52 999.66 998.40 998.41 997.69 998.36 998.89 998.68 999.79 1000.46 1000.93 1001.41 1002.19 1003.06 1004.39 1005.61 1006.45 1007.50 1008.42 1008.81 1008.89 1009.23 1009.71 1010.10 1010.40 1010.87 1011.05 1011.63 1011.95 1011.91 1012.22 1011.98 1012.35 1012.08 1012.08 1012.21 1012.20 1011.93 1011.61 1011.68 1011.70 1011.51
1004.94 1004.16 1003.73 1003.27 1002.58 1002.04 1001.84 1000.92 999.58 999.41 998.49 997.93 998.49 998.91 998.95 999.04 1000.09 1000.65 1001.37 1002.21 1003.55 1004.90 1005.99 1006.67 1007.51 1008.61 1009.12 1009.29 1009.81 1010.10 1010.09 1010.23 1010.46 1010.61 1011.61 1011.77 1012.18 1012.36 1012.29 1012.02 1012.15 1012.04 1012.42 1012.36 1012.38 1012.26 1012.07 1011.45 1011.25
1005.26 1004.53 1003.22 1002.58 1002.36 1002.01 1001.74 999.54 999.67 999.45 998.55 998.24 998.32 998.90 999.25 999.17 999.25 1000.37 1001.49 1002.65 1003.93 1005.17 1006.24 1007.07 1007.76 1009.02 1009.48 1009.65 1009.81 1009.81 1009.79 1009.87 1010.12 1010.63 1011.45 1011.78 1012.04 1012.13 1012.30 1012.14 1012.18 1012.53 1012.52 1012.38 1012.40 1012.46 1012.72 1012.79 1012.04
1004.45 1003.28 1002.57 1001.82 1001.16 1001.81 1001.00 999.72 999.06 998.73 998.29 997.71 998.05 998.64 998.84 999.11 999.48 1000.35 1002.00 1003.33 1004.58 1005.70 1006.68 1007.36 1007.92 1008.86 1009.20 1009.43 1009.58 1009.63 1010.10 1010.07 1010.35 1010.80 1011.12 1011.66 1011.79 1012.01 1011.87 1012.12 1012.34 1012.77 1012.50 1012.67 1012.96 1013.09 1013.36 1012.93 1012.24
1002.68 1002.00 1001.54 1000.29 1000.13 1000.18 999.91 999.64 998.43 998.13 997.75 997.86 997.97 998.13 998.43 998.97 999.81 1000.66 1002.61 1003.91 1004.97 1005.85 1006.67 1007.04 1008.07 1009.04 1009.33 1009.23 1009.66 1009.62 1010.36 1010.31 1010.60 1010.92 1011.12 1011.92 1011.80 1012.05 1012.25 1012.09 1012.64 1012.74 1012.73 1012.92 1013.43 1013.73 1013.22 1012.68 1012.11
1004.70 1002.47 1000.89 999.73 999.47 999.27 999.16 999.07 998.69 997.53 997.22 996.85 997.16 997.61 997.98 998.53 999.48 1000.98 1002.87 1004.13 1005.05 1005.81 1006.55 1007.08 1008.03 1008.90 1009.12 1008.94 1009.63 1009.57 1009.90 1010.20 1010.70 1011.50 1011.74 1012.04 1012.17 1012.32 1012.41 1012.54 1013.15 1013.59 1013.39 1013.82 1013.82 1013.83 1013.18 1012.38 1012.25
1004.46 1003.40 1002.24 1000.91 999.91 999.61 998.90 998.61 998.29 997.74 997.31 996.89 996.90 997.15 997.56 998.31 999.69 1001.14 1002.77 1004.18 1004.83 1005.63 1006.30 1007.01 1007.77 1008.41 1008.53 1009.12 1009.26 1009.43 1009.52 1010.55 1011.35 1011.79 1012.15 1012.54 1013.10 1013.28 1013.06 1013.53 1013.69 1014.08 1013.79 1014.27 1014.32 1014.13 1013.15 1012.31 1012.37
1004.96 1004.21 1002.89 1001.50 1000.66 1000.73 999.81 998.54 997.72 997.29 996.87 996.87 996.16 996.45 997.02 997.72 999.52 1000.82 1002.42 1003.52 1004.51 1005.31 1005.85 1006.64 1007.42 1008.12 1008.47 1008.78 1009.20 1009.60 1010.24 1011.36 1011.67 1012.27 1012.74 1013.46 1013.36 1013.55 1013.75 1014.05 1014.35 1014.38 1014.23 1014.26 1014.55 1014.50 1014.27 1013.46 1012.90
1004.27 1003.79 1003.23 1002.44 1001.50 999.60 999.45 997.32 996.75 996.43 996.21 996.12 996.12 996.11 996.53 997.35 998.86 1000.40 1002.54 1003.89 1004.38 1004.79 1005.65 1006.33 1007.07 1007.75 1008.33 1008.72 1009.35 1010.07 1010.49 1010.91 1011.42 1012.18 1013.47 1014.19 1014.11 1014.35 1014.51 1014.57 1014.72 1014.80 1014.98 1015.10 1015.09 1015.23 1014.78 1014.22 1013.58
1004.70 1004.12 1003.80 1003.04 1001.69 1000.15 997.35 996.94 993.53 995.30 995.11 995.22 995.47 995.92 996.22 996.70 997.96 999.65 1002.72 1003.93 1003.80 1005.05 1005.17 1006.17 1006.81 1007.55 1008.31 1008.67 1009.11 1010.02 1010.47 1011.00 1011.32 1013.02 1013.72 1014.48 1014.89 1014.88 1015.07 1015.13 1015.34 1015.44 1015.28 1015.51 1015.78 1015.78 1015.41 1014.48 1014.89
1005.74 1004.68 1003.95 1002.81 1001.20 999.16 997.04 995.80 993.16 993.00 993.69 994.01 994.60 995.10 995.92 995.86 996.77 998.87 1001.89 1003.34 1003.69 1004.34 1004.43 1006.52 1006.62 1007.24 1008.04 1008.62 1009.16 1009.88 1010.35 1011.24 1012.13 1013.03 1013.61 1014.09 1014.87 1015.29 1015.53 1015.68 1015.93 1016.00 1015.85 1015.86 1016.07 1015.86 1015.88 1015.85 1016.16
1005.27 1004.43 1002.44 1001.33 999.74 997.68 996.39 995.28 992.45 991.43 992.30 992.47 992.99 993.91 995.08 995.32 996.25 998.12 1000.14 1001.20 1002.41 1003.13 1004.14 1006.50 1006.67 1007.12 1007.53 1008.73 1009.38 1009.81 1010.84 1011.59 1012.51 1012.94 1013.37 1013.90 1014.55 1015.45 1016.10 1016.19 1016.28 1016.33 1016.16 1016.20 1016.08 1016.35 1016.57 1016.75 1016.78
1003.79 1003.45 1001.62 1000.89 998.38 996.36 995.12 993.90 992.55 991.94 991.35 991.75 992.36 993.20 994.36 994.68 995.64 997.62 999.43 1001.09 1001.99 1003.42 1004.38 1005.06 1006.17 1007.44 1007.96 1008.81 1009.80 1010.67 1011.68 1011.98 1012.54 1012.80 1013.62 1014.21 1014.98 1015.91 1016.44 1016.38 1016.45 1016.18 1016.22 1016.42 1016.45 1016.73 1016.92 1017.17 1016.99
1003.70 1003.03 1002.11 1002.43 999.01 996.56 993.81 993.49 992.79 991.93 991.59 991.13 991.53 992.58 993.66 994.46 995.71 997.65 999.76 1000.94 1001.70 1003.07 1003.40 1004.31 1005.99 1007.15 1007.43 1009.29 1009.90 1010.92 1011.77 1012.27 1013.29 1014.03 1014.55 1015.00 1015.70 1016.28 1016.55 1016.46 1016.48 1016.49 1016.74 1016.91 1016.93 1017.19 1017.22 1017.15 1017.20
1003.51 1003.85 1002.56 1001.79 999.32 996.18 993.78 992.57 991.94 992.03 991.65 991.16 991.09 991.89 993.26 994.51 996.15 997.73 999.97 1000.88 1001.43 1002.57 1003.15 1004.59 1005.95 1006.96 1008.17 1009.23 1010.09 1011.35 1012.55 1013.27 1013.93 1014.59 1015.19 1015.62 1016.18 1016.46 1016.56 1016.67 1016.86 1017.05 1017.35 1017.33 1017.08 1017.03 1017.47 1017.54 1017.53
1003.31 1002.99 1002.52 1001.36 999.88 997.06 994.42 992.11 991.35 991.25 991.89 991.67 991.15 991.66 993.04 994.91 996.23 997.97 999.53 1001.28 1002.14 1002.77 1004.09 1004.79 1005.88 1006.72 1008.29 1009.30 1010.70 1011.92 1012.92 1013.81 1014.49 1014.97 1015.47 1015.99 1016.43 1016.45 1016.76 1016.91 1017.22 1017.38 1017.63 1017.67 1017.91 1017.73 1017.65 1017.70 1017.77
1003.15 1002.67 1002.42 1001.59 1000.15 998.57 996.18 993.01 991.24 991.32 991.39 991.67 991.32 991.63 993.02 995.01 996.05 998.58 1001.02 1002.19 1000.63 1003.46 1003.98 1004.75 1005.78 1007.01 1008.74 1009.97 1011.13 1012.35 1013.35 1014.14 1014.82 1015.50 1016.14 1016.46 1016.75 1016.74 1017.03 1017.10 1017.34 1017.58 1017.84 1018.09 1018.05 1017.99 1017.97 1018.02 1018.04
Wind_Speed
14 14 11 9 10 10 20 22 22 6 6 3 8 6 4 6 13 7 5 6 19 21 19 17 15 18 18 17 18 17 16 17 14 12 12 12 11 10 10 10 9 8 8 8 7 7 6 5 5
14 9 9 9 12 18 17 22 23 10 6 9 2 4 5 5 6 14 13 10 19 20 18 17 15 17 18 18 19 17 17 17 15 14 13 12 11 10 10 9 8 8 8 7 6 6 4 4 3
14 12 11 8 18 21 20 22 21 13 10 7 4 6 3 7 5 8 12 15 19 19 18 18 16 16 18 18 18 17 17 16 15 14 14 12 11 11 10 9 8 7 7 6 5 4 3 2 1
9 8 10 16 22 26 29 25 18 13 10 10 9 3 8 8 8 7 12 18 18 19 19 19 17 17 17 18 18 17 17 16 15 14 14 13 12 11 10 9 8 7 6 5 4 2 1 2 4
11 9 13 19 26 26 24 29 21 11 14 16 12 9 8 9 12 13 16 16 18 19 19 18 16 16 17 18 18 16 17 16 15 14 14 13 12 12 11 9 8 7 5 3 2 2 4 5 6
11 14 14 22 25 27 26 21 29 12 17 16 15 11 8 13 14 15 17 17 17 18 19 19 16 16 16 16 16 16 16 16 15 14 12 12 11 11 10 8 7 5 3 2 2 4 7 8 9
19 16 21 25 22 27 26 25 16 13 18 17 9 17 9 14 14 15 17 17 15 17 18 17 16 15 14 15 15 16 15 15 14 13 13 11 11 10 8 7 6 4 2 2 4 6 8 9 11
16 18 27 24 22 26 21 24 18 22 22 18 8 8 15 14 15 17 18 18 17 17 17 17 15 15 15 14 14 15 15 14 14 13 12 12 10 9 8 7 7 4 3 4 6 7 9 10 13
17 18 21 27 26 22 20 21 14 20 21 22 16 12 18 14 16 17 18 17 16 15 17 17 19 17 16 17 13 14 15 14 13 12 10 11 10 9 11 9 9 5 5 6 8 9 11 14 16
19 16 27 25 21 24 26 18 16 21 21 22 12 13 17 13 15 19 20 19 20 19 19 18 17 17 16 13 15 13 12 11 10 10 10 10 5 3 5 7 9 10 10 13 13 13 15 14 10
21 22 21 25 25 22 18 23 13 21 21 20 20 15 19 13 13 17 18 21 22 21 16 17 14 15 17 15 11 8 8 7 7 9 8 2 5 6 7 6 8 8 12 7 9 8 9 12 9
24 24 21 28 22 18 19 16 18 22 24 16 23 16 21 18 16 16 18 18 19 21 20 19 17 11 13 12 11 11 9 8 7 8 7 5 5 4 3 3 3 6 2 3 4 5 5 7 10
20 23 22 20 20 18 18 19 21 20 12 5 9 3 16 15 17 15 17 16 18 19 18 18 17 14 9 10 9 9 8 7 8 8 8 7 5 3 3 1 4 3 2 2 4 6 6 7 9
17 21 16 21 22 23 15 20 22 18 19 14 9 7 10 17 14 16 17 17 17 16 15 17 18 11 13 9 9 7 6 7 7 7 8 5 5 4 3 5 4 1 2 2 5 6 6 8 10
15 21 16 26 21 26 20 21 27 23 20 16 11 12 14 15 20 16 16 18 17 13 15 15 17 15 12 11 10 7 8 9 7 6 6 5 5 4 4 3 3 2 1 5 4 6 4 4 3
15 19 18 23 25 22 22 25 25 24 23 25 19 13 11 12 17 16 14 11 12 12 12 14 13 12 13 11 8 8 8 6 5 5 7 7 6 5 5 5 2 1 2 3 4 4 5 6 7
19 16 24 25 29 27 27 21 23 26 23 20 19 16 14 10 11 16 14 11 13 14 15 15 16 16 13 13 10 8 9 5 5 5 5 6 7 7 5 3 3 4 2 3 3 3 5 6 7
10 22 20 23 23 27 30 24 23 24 29 24 20 21 17 16 16 15 16 13 13 16 16 16 12 12 10 9 6 7 8 6 6 4 4 7 6 7 6 3 2 3 2 5 5 6 5 6 8
12 15 13 12 17 22 22 25 25 16 20 21 23 17 17 16 14 18 14 16 15 15 17 17 16 16 11 10 8 8 9 8 6 3 5 4 2 2 1 2 1 5 5 6 6 7 5 5 7
13 14 16 15 10 7 15 23 26 25 19 19 20 22 22 18 16 14 19 18 17 15 18 17 16 15 11 9 7 8 8 8 7 6 6 7 9 7 5 6 3 5 5 7 6 7 6 6 8
14 17 16 17 11 16 15 18 22 26 22 22 18 22 18 18 20 19 18 19 21 21 21 18 16 14 12 12 7 6 9 6 7 7 7 5 4 6 5 7 7 4 3 6 7 8 10 6 7
15 15 13 14 11 13 20 13 23 25 25 24 22 18 21 20 22 23 13 14 19 21 19 20 17 15 12 11 11 11 9 9 3 7 8 7 8 8 8 8 8 7 6 7 7 7 5 7 8
15 7 11 15 15 17 17 13 16 29 25 26 24 23 18 21 24 27 22 10 20 21 20 17 19 16 15 12 12 11 8 7 8 9 10 10 8 9 9 10 9 8 6 8 8 8 9 9 6
12 12 15 15 14 14 19 14 19 25 29 27 27 26 23 23 24 26 28 32 24 20 21 17 19 16 16 11 10 7 7 10 9 9 8 7 7 7 8 8 7 6 6 7 7 8 11 8 8
12 15 11 11 12 13 20 14 22 22 27 30 29 28 27 24 24 26 28 24 24 22 23 19 15 17 15 12 10 9 11 12 11 11 7 9 7 7 7 7 7 6 8 8 9 8 9 9 8
11 15 10 7 11 14 17 16 16 18 11 26 26 28 26 25 23 24 24 20 24 22 23 21 17 15 15 13 11 13 13 8 8 9 8 7 8 7 7 7 7 9 9 9 6 7 7 7 7
16 15 14 10 16 12 12 11 17 15 14 24 27 29 26 25 23 23 29 19 20 23 22 21 21 18 18 12 13 13 11 11 12 11 10 8 9 8 8 9 9 10 9 7 6 6 7 6 6
16 11 10 8 10 13 14 21 11 18 15 14 25 29 27 23 22 24 27 20 20 23 21 21 19 18 19 17 15 13 13 13 12 11 12 11 9 8 9 9 8 8 7 6 4 5 6 6 6
13 15 15 14 13 11 12 11 15 16 19 19 23 27 28 21 27 23 18 27 26 22 21 21 21 21 18 16 16 15 13 13 12 11 11 10 9 8 8 8 7 7 6 6 5 5 5 7 6
10 16 18 12 17 14 17 16 5 18 20 18 24 27 28 27 24 22 15 17 25 23 22 21 20 20 18 17 16 15 13 13 12 11 10 9 8 8 7 7 6 6 6 5 5 6 6 7 7
Wind_Direction
262 235 237 250 237 231 246 236 249 238 255 240 32 157 279 23 353 57 128 124 131 132 144 148 139 135 137 138 134 135 133 124 126 131 131 129 127 126 121 114 112 114 114 113 107 102 100 100 103
272 229 234 255 236 240 232 243 226 217 190 101 191 241 189 88 32 118 152 151 133 135 145 143 137 134 136 138 133 133 129 127 129 130 128 126 125 127 118 115 120 119 113 103 101 99 100 83 67
254 235 229 225 230 238 245 219 243 185 202 176 180 251 177 87 86 146 107 143 135 142 153 128 135 134 135 134 128 128 124 125 129 130 129 129 128 125 120 124 124 118 110 108 104 112 121 137 214
221 201 249 246 233 226 246 260 207 206 169 196 247 238 94 62 136 132 142 144 138 148 148 131 133 135 135 131 129 126 126 130 128 129 128 132 130 125 125 127 129 124 120 120 131 148 191 257 282
240 231 227 231 238 246 224 248 268 208 216 199 189 236 110 123 107 136 147 149 160 154 134 140 134 136 135 133 130 130 130 128 126 127 132 132 133 132 133 135 136 132 131 139 172 238 268 282 289
216 234 230 230 233 237 245 233 248 221 243 212 156 228 95 124 141 146 152 155 162 147 133 137 134 133 133 132 130 132 130 129 128 129 131 133 136 136 137 137 136 138 146 195 286 302 299 301 296
233 219 234 245 235 237 227 242 239 237 247 227 187 191 128 164 139 149 155 158 151 142 142 148 148 134 127 131 132 132 130 128 127 132 134 136 138 141 143 146 154 167 203 287 304 301 297 293 286
239 255 244 241 244 250 225 227 197 240 241 252 166 224 180 140 146 149 157 159 150 147 141 150 147 153 157 146 130 129 129 132 133 136 139 143 143 147 158 172 172 181 222 262 272 279 283 279 274
226 247 241 242 237 248 250 208 219 237 246 241 170 248 96 132 156 157 157 157 156 161 151 160 156 157 156 141 135 130 135 136 135 143 152 164 169 175 166 119 144 181 225 248 252 257 260 261 264
232 234 244 247 252 249 247 242 205 227 226 241 225 125 109 146 169 167 167 166 167 169 166 159 158 158 146 148 153 156 153 166 174 173 174 217 128 113 37 133 172 200 215 231 230 235 242 251 265
215 242 256 251 262 269 251 247 218 239 223 220 219 177 148 160 180 181 178 171 171 169 170 158 151 173 155 137 169 156 168 168 165 154 190 117 174 167 210 171 191 207 200 253 201 221 228 3 313
238 241 244 269 271 265 273 256 214 233 230 217 225 226 158 167 183 186 180 177 170 162 170 159 145 168 168 142 178 165 178 165 165 167 182 139 219 164 281 278 19 201 123 5 280 306 343 291 330
235 253 237 253 263 274 249 260 267 232 235 192 87 203 155 173 185 189 183 181 166 161 164 166 155 172 154 157 163 170 152 175 153 154 184 181 220 190 220 89 280 352 328 320 334 295 352 310 294
264 247 255 253 241 255 245 244 250 246 220 218 157 215 206 175 205 187 186 179 169 158 156 155 160 167 158 173 136 145 158 138 172 172 165 193 216 153 205 201 224 221 277 323 270 8 346 347 350
263 267 249 238 234 242 234 241 238 236 234 234 194 215 203 197 187 189 194 173 169 150 166 157 161 163 157 151 152 167 168 165 184 159 145 192 217 163 281 210 218 141 272 267 325 315 309 263 46
255 247 249 234 234 238 235 240 228 237 226 210 198 202 196 205 193 180 170 164 129 135 146 154 148 162 174 145 169 187 149 190 171 154 157 183 184 179 209 197 105 69 275 278 288 303 344 332 352
225 243 230 247 209 223 225 234 253 209 227 224 197 209 196 209 196 168 131 138 130 139 159 171 159 167 174 157 170 180 130 186 167 169 170 181 180 170 219 192 171 224 260 330 340 354 329 325 347
254 220 242 223 227 207 225 224 246 224 205 218 218 213 206 194 181 162 139 152 148 151 158 165 148 160 191 152 170 156 176 163 161 158 152 183 175 183 212 186 218 262 281 335 349 309 325 327 356
282 288 253 241 218 205 220 225 224 240 220 213 208 214 209 190 176 140 140 154 153 161 160 158 163 168 182 159 185 157 169 165 144 133 171 154 138 127 110 98 29 352 330 352 327 315 347 16 13
282 273 268 280 270 228 237 218 230 214 232 213 213 208 202 177 183 163 148 164 153 162 159 165 162 168 161 175 178 177 171 125 171 143 99 56 53 38 56 4 5 359 342 37 11 358 354 31 49
243 255 258 264 238 231 249 236 224 225 213 227 216 205 191 191 170 177 159 160 163 167 164 160 156 161 174 173 134 98 104 125 168 145 112 77 78 61 50 46 36 32 337 59 34 16 27 22 45
257 229 261 286 269 242 203 231 214 213 214 214 209 214 195 199 176 159 151 156 176 165 161 157 152 161 168 165 151 156 169 176 163 88 89 82 76 77 77 75 70 54 54 41 45 34 17 18 36
271 358 277 246 245 258 229 225 218 197 206 209 207 202 207 195 185 151 146 201 180 167 156 150 154 165 155 175 162 173 181 142 105 102 101 92 80 74 66 65 61 50 50 63 46 41 31 53 19
270 276 248 248 245 233 243 215 225 180 201 202 201 193 196 198 173 157 157 176 169 155 144 156 159 161 162 169 160 191 127 105 119 136 139 122 110 93 71 74 73 58 66 55 57 50 52 46 41
229 252 240 211 214 238 201 229 256 173 196 199 194 187 190 192 172 152 178 160 155 154 145 162 157 155 155 147 149 145 101 111 126 150 128 130 124 100 82 81 54 69 62 60 52 54 59 54 48
234 244 259 300 198 221 232 202 228 250 224 200 195 181 190 180 170 168 161 154 157 151 153 152 146 143 149 135 110 102 126 135 126 107 123 106 103 101 107 90 78 65 59 58 51 61 60 50 60
226 232 266 299 270 268 192 210 217 235 227 191 195 175 188 179 161 170 161 165 157 159 147 144 151 151 124 124 124 131 120 116 99 110 115 106 116 116 87 75 65 62 61 60 76 62 61 51 40
235 288 243 232 275 251 242 194 225 194 212 223 198 175 180 168 162 161 159 169 160 152 141 138 141 135 134 127 122 113 115 117 115 102 92 94 95 86 77 73 71 70 65 57 28 96 62 58 36
197 230 236 260 255 280 258 223 195 195 202 201 206 178 173 160 163 171 157 151 152 139 137 141 139 132 128 124 117 121 118 114 110 105 98 100 99 94 85 83 79 79 73 69 76 79 66 65 57
264 221 229 232 229 258 277 283 298 204 182 208 213 178 166 161 172 155 147 158 128 143 139 133 129 128 127 127 122 121 116 110 106 105 106 107 98 93 92 85 78 79 82 82 76 56 60 53 47